Total_Precipitation_Accumulation
2.93 3.13 2.98 2.75 2.78 2.87 3.35 3.79 3.95 3.48 3.17 3.02 2.80 2.42 2.35 2.37 2.53 2.26 2.21 2.11 1.81 1.73 1.69 1.60 1.58 1.67 1.84 1.97 2.08 2.24 2.42 2.67 2.94 3.11 3.28 3.52 3.67 3.81
3.04 3.21 3.16 2.87 2.90 2.93 3.28 3.68 3.92 4.03 3.49 3.04 2.99 2.64 2.40 2.17 2.41 2.22 2.12 2.12 1.85 1.68 1.63 1.55 1.48 1.44 1.45 1.51 1.58 1.65 1.78 1.98 2.21 2.39 2.51 2.69 2.85 3.05
2.70 2.85 2.97 3.13 3.10 3.12 3.35 3.53 3.76 4.07 3.61 3.24 3.30 3.11 2.82 2.53 2.39 2.32 2.10 1.99 1.86 1.76 1.57 1.53 1.46 1.37 1.35 1.37 1.38 1.44 1.53 1.65 1.82 2.00 2.14 2.22 2.25 2.40
2.78 2.92 2.78 2.95 3.02 3.01 3.20 3.40 3.65 3.94 3.77 3.56 3.65 3.58 3.32 2.95 2.78 2.64 2.24 2.04 1.92 1.92 1.69 1.54 1.46 1.41 1.33 1.34 1.36 1.35 1.39 1.45 1.55 1.68 1.83 1.96 2.06 2.10
2.60 2.61 2.52 2.71 2.68 2.83 2.93 3.07 3.31 3.58 3.72 3.58 3.60 3.67 3.40 3.16 3.03 2.64 2.38 2.39 2.04 2.06 2.02 1.73 1.53 1.45 1.43 1.38 1.35 1.37 1.38 1.39 1.43 1.54 1.70 1.85 2.00 2.10
2.19 2.17 2.15 2.25 2.38 2.68 2.76 2.84 3.02 3.27 3.41 3.44 3.49 3.51 3.36 3.31 3.31 2.93 2.75 2.63 2.35 2.01 2.03 1.79 1.69 1.61 1.51 1.42 1.39 1.42 1.49 1.49 1.51 1.58 1.69 1.81 1.91 2.00
2.01 1.85 1.76 1.87 2.03 2.23 2.12 2.37 2.64 2.83 2.95 3.11 3.24 3.43 3.27 3.36 3.21 3.11 2.94 2.85 2.73 2.38 2.29 1.93 1.78 1.65 1.52 1.43 1.40 1.42 1.53 1.61 1.64 1.68 1.75 1.84 1.96 2.05
1.99 1.85 1.71 1.71 1.77 1.82 1.83 1.91 2.14 2.34 2.52 2.81 3.00 3.17 3.04 3.05 3.27 3.24 3.14 2.97 2.84 2.66 2.78 2.59 2.28 2.11 1.79 1.47 1.42 1.39 1.44 1.61 1.71 1.73 1.81 1.90 2.01 2.12
2.07 2.07 1.73 1.43 1.60 1.57 1.64 1.64 1.69 1.84 2.10 2.46 2.64 2.67 2.87 2.95 3.29 3.30 3.42 3.29 3.09 2.95 3.14 3.07 2.88 2.68 1.99 1.76 1.73 1.47 1.35 1.36 1.48 1.60 1.67 1.81 1.92 2.00
1.91 1.89 1.83 1.71 1.62 1.62 1.63 1.59 1.44 1.52 1.73 1.78 1.94 2.24 2.77 3.14 3.22 3.25 3.54 3.50 3.25 3.10 3.19 3.24 2.98 2.87 2.31 1.88 1.71 1.44 1.28 1.26 1.30 1.40 1.53 1.66 1.83 1.99
1.74 1.67 1.63 1.65 1.71 1.59 1.65 1.63 1.51 1.46 1.51 1.63 1.71 1.94 2.26 2.65 2.91 2.99 3.09 3.24 3.21 3.14 3.19 3.30 3.18 3.10 3.02 2.62 2.01 1.69 1.37 1.25 1.27 1.31 1.36 1.45 1.61 1.83
1.68 1.56 1.45 1.39 1.47 1.46 1.57 1.71 1.59 1.50 1.55 1.55 1.51 1.61 1.78 2.00 2.17 2.17 2.36 2.57 2.66 2.80 2.77 3.06 3.28 3.42 3.59 3.40 2.79 2.21 1.84 1.59 1.42 1.35 1.37 1.43 1.57 1.49
1.62 1.48 1.37 1.31 1.27 1.26 1.33 1.45 1.54 1.66 1.71 1.70 1.71 1.71 1.86 1.99 2.03 2.04 2.19 2.36 2.37 2.30 2.27 2.54 2.81 3.09 3.37 3.47 3.25 2.76 2.36 2.09 1.81 1.62 1.54 1.52 1.56 1.53
1.71 1.62 1.55 1.41 1.27 1.23 1.19 1.27 1.43 1.47 1.58 1.67 1.69 1.69 1.76 1.90 2.03 2.14 2.25 2.38 2.38 2.30 2.37 2.55 2.65 2.67 2.64 2.64 2.72 2.58 2.40 2.28 2.21 2.10 1.92 1.94 1.86 1.86
1.73 1.76 1.64 1.50 1.40 1.36 1.38 1.46 1.46 1.44 1.61 1.73 1.73 1.69 1.75 1.86 1.99 2.12 2.21 2.32 2.36 2.23 2.14 2.22 2.31 2.48 2.64 2.45 2.26 2.18 2.23 2.28 2.36 2.52 2.53 2.36 2.18 2.11
1.76 1.77 1.66 1.54 1.44 1.40 1.40 1.40 1.39 1.50 1.62 1.63 1.70 1.81 1.82 1.87 1.93 1.97 2.08 2.13 2.13 2.04 2.03 2.05 2.14 2.32 2.40 2.40 2.33 2.12 2.12 2.27 2.33 2.49 2.70 2.77 2.66 2.48
2.17 2.06 1.95 1.81 1.65 1.58 1.54 1.53 1.59 1.67 1.68 1.72 1.80 1.83 1.78 1.75 1.80 1.87 2.05 2.12 1.99 1.81 1.85 1.99 2.15 2.25 2.20 2.29 2.32 2.12 2.10 2.09 2.17 2.38 2.57 2.59 2.49 2.42
2.15 2.05 2.12 2.09 1.97 1.92 1.85 1.82 1.80 1.78 1.77 1.79 1.80 1.78 1.77 1.74 1.82 1.89 2.06 2.14 2.05 1.85 1.81 1.96 2.17 2.37 2.40 2.27 2.10 2.08 2.06 2.07 2.15 2.35 2.42 2.40 2.26 2.10
2.09 2.09 2.14 2.16 2.11 2.09 2.09 1.99 1.90 1.90 1.96 1.93 1.88 1.88 1.89 1.89 1.96 2.00 2.05 2.07 2.01 1.88 1.82 1.95 2.10 2.24 2.27 2.11 1.96 1.86 1.94 2.04 2.26 2.33 2.32 2.26 2.15 2.04
1.94 2.10 2.13 2.12 2.10 2.08 2.05 2.00 1.95 2.00 2.07 1.97 1.89 1.88 1.91 1.93 1.98 2.00 2.04 2.04 2.01 1.99 1.98 1.95 2.01 2.12 2.13 2.11 2.08 1.95 1.79 1.92 2.12 2.19 2.13 2.08 2.03 2.03
2.07 2.14 2.12 2.08 2.05 2.06 2.08 2.06 2.01 2.02 2.06 2.07 1.99 1.99 2.03 2.06 2.06 2.04 2.11 2.15 2.05 1.97 1.91 1.77 1.85 2.17 2.39 2.53 2.31 2.06 2.13 2.14 2.19 2.17 2.15 2.15 2.10 2.01
1.95 2.05 2.02 1.94 1.94 2.00 2.04 2.06 2.07 2.09 2.15 2.17 2.06 2.00 2.05 2.14 2.06 2.08 2.15 2.15 2.05 1.97 1.93 1.90 2.08 2.30 2.47 2.60 2.40 2.30 2.47 2.50 2.48 2.47 2.42 2.33 2.11 1.93
1.94 1.92 1.88 1.81 1.83 1.91 1.99 2.10 2.14 2.18 2.17 2.16 2.14 2.08 2.07 2.13 2.11 2.13 2.16 2.20 2.23 2.21 2.20 2.22 2.31 2.39 2.31 2.32 2.38 2.36 2.41 2.56 2.55 2.49 2.43 2.38 2.10 1.80